Regional Weather Roundup
Issued by NWS Binghamton, NY

Home | Current Version | Previous Version | Text Only | Print | Product List | Glossary On
Versions: 1 2 3 4 5 6 7 8 9 10 11 12 13 14 15 16 17 18 19 20 21 22 23 24 25 26 27 28 29 30 31 32 33 34 35 36 37 38 39 40 41 42 43 44 45 46 47 48 49 50
000
ASUS41 KBGM 010210
RWRBGM
RWRBGM
BINGHAMTON REGIONAL WEATHER ROUNDUP
NATIONAL WEATHER SERVICE BINGHAMTON NY
1000 PM EDT TUE JUN 30 2015

Note: "fair" indicates few or no clouds below 12,000 feet with no
significant weather and/or obstructions to visibility.

* = Station(s) that does not report precipitation, such as rain,
snow, etc, also no thunder or fog.

!NYZ009-015>018-022>025-036-037-044>046-055>057-062-010300
...CENTRAL NEW YORK...

CITY           SKY/WX    TMP DP  RH WIND       PRES   REMARKS
BINGHAMTON     TSTM      65  63  93 SE9       29.86R FOG
CORTLAND       FAIR      68  64  88 S6        29.83S
DANSVILLE      MOCLDY    66  65  96 S3        29.78S
ELMIRA         LGT RAIN  67  64  90 SE5       29.79S
ITHACA         LGT RAIN  67  65  93 S12       29.82S
MONTICELLO     MOCLDY    64  63  94 SE7       29.90S
NORWICH        PTCLDY    64  63  94 CALM      29.84F
PENN YAN       CLOUDY    67  64  90 E3        29.80R
ROME           RAIN      64  63  96 E5        29.85R
SIDNEY         PTCLDY    70  66  88 W3        29.84F
SYRACUSE       TSTM      65  64  97 E5        29.79S FOG
$$

!PAZ038>040-043-044-047-048-072-010300
...NORTHEAST PENNSYLVANIA...

CITY           SKY/WX    TMP DP  RH WIND       PRES   REMARKS
SCRANTON       CLOUDY    69  63  81 N9        29.83S
TOWANDA*         N/A     66  64  94 MISG      29.85R
$$
&&
KEY
WCI = WIND CHILL INDEX
VSB = VISIBILITY
HX  = HEAT INDEX
$$



USA.gov is the U.S. government's official web portal to all federal, state and local government web resources and services.